This is the latest recevied weather packets stored in our database for station/object EA5JZL-10. If no packets are shown the sender has not sent any weather packets the latest 10 day(s).
| Time | Temp. | Humidity | Pressure | Rain* | Wind** | Luminosity | Snow |
|---|---|---|---|---|---|---|---|
| 1777198853 | 21.11° C | 48% | 1019.6 hPa | - | - | - | - |
| 1777197053 | 21.11° C | 44% | 1019.5 hPa | - | - | - | - |
| 1777195253 | 20° C | 46% | 1019.7 hPa | - | - | - | - |
| 1777193453 | 20.56° C | 46% | 1019.6 hPa | - | - | - | - |
| 1777191652 | 21.67° C | 46% | 1019.6 hPa | - | - | - | - |
| 1777189852 | 21.67° C | 46% | 1019.5 hPa | - | - | - | - |
| 1777188052 | 21.67° C | 45% | 1019.3 hPa | - | - | - | - |
| 1777186252 | 22.22° C | 44% | 1019.2 hPa | - | - | - | - |
| 1777184452 | 22.22° C | 44% | 1019 hPa | - | - | - | - |
| 1777182652 | 21.67° C | 44% | 1018.8 hPa | - | - | - | - |
| 1777180852 | 21.67° C | 44% | 1018.5 hPa | - | - | - | - |
| 1777179051 | 22.78° C | 43% | 1018.2 hPa | - | - | - | - |
| 1777177251 | 22.22° C | 44% | 1018.3 hPa | - | - | - | - |
| 1777175451 | 21.67° C | 44% | 1018.3 hPa | - | - | - | - |
| 1777173651 | 22.22° C | 43% | 1018.2 hPa | - | - | - | - |
| 1777171851 | 22.78° C | 43% | 1018 hPa | - | - | - | - |
| 1777170050 | 22.78° C | 43% | 1018.2 hPa | - | - | - | - |
| 1777168250 | 23.33° C | 44% | 1018.3 hPa | - | - | - | - |
| 1777166450 | 23.33° C | 43% | 1018.6 hPa | - | - | - | - |
| 1777164650 | 23.89° C | 43% | 1018.8 hPa | - | - | - | - |
| 1777162850 | 23.89° C | 42% | 1019.1 hPa | - | - | - | - |
| 1777161049 | 23.89° C | 43% | 1019.2 hPa | - | - | - | - |
| 1777159249 | 23.89° C | 44% | 1019.2 hPa | - | - | - | - |
| 1777157449 | 24.44° C | 42% | 1019.3 hPa | - | - | - | - |
| 1777155649 | 24.44° C | 41% | 1019.2 hPa | - | - | - | - |
* Rain since midnight (hover to see other rain measurements)
** Current wind speed in m/s (hover to see current wind gust speed)